This is the latest recevied weather packets stored in our database for station/object S53BL-10. If no packets are shown the sender has not sent any weather packets the latest 10 day(s).
| Time | Temp. | Humidity | Pressure | Rain* | Wind** | Luminosity | Snow |
|---|---|---|---|---|---|---|---|
| 1777820731 | 26.11° C | 23% | 1013.3 hPa | - | - | - | - |
| 1777819830 | 26.67° C | 23% | 1013.1 hPa | - | - | - | - |
| 1777818929 | 26.67° C | 21% | 1013.3 hPa | - | - | - | - |
| 1777818029 | 27.78° C | 21% | 1013.3 hPa | - | - | - | - |
| 1777817128 | 28.89° C | 21% | 1013.4 hPa | - | - | - | - |
| 1777816227 | 27.22° C | 21% | 1013.6 hPa | - | - | - | - |
| 1777815326 | 27.22° C | 21% | 1013.6 hPa | - | - | - | - |
| 1777814426 | 27.78° C | 22% | 1013.8 hPa | - | - | - | - |
| 1777813525 | 27.78° C | 22% | 1013.9 hPa | - | - | - | - |
| 1777812624 | 27.78° C | 22% | 1014 hPa | - | - | - | - |
| 1777811723 | 27.22° C | 21% | 1014.2 hPa | - | - | - | - |
| 1777810822 | 27.78° C | 21% | 1014.2 hPa | - | - | - | - |
| 1777809921 | 26.11° C | 22% | 1014.4 hPa | - | - | - | - |
| 1777809021 | 27.22° C | 21% | 1014.5 hPa | - | - | - | - |
| 1777808120 | 27.22° C | 22% | 1014.6 hPa | - | - | - | - |
| 1777807219 | 27.22° C | 22% | 1014.7 hPa | - | - | - | - |
| 1777806318 | 27.22° C | 21% | 1014.7 hPa | - | - | - | - |
| 1777805417 | 27.22° C | 21% | 1014.9 hPa | - | - | - | - |
| 1777804517 | 26.67° C | 23% | 1015 hPa | - | - | - | - |
| 1777803616 | 27.78° C | 26% | 1015.3 hPa | - | - | - | - |
| 1777802715 | 27.22° C | 25% | 1015.6 hPa | - | - | - | - |
| 1777801814 | 28.33° C | 25% | 1015.7 hPa | - | - | - | - |
| 1777800926 | 27.22° C | 26% | 1015.9 hPa | - | - | - | - |
| 1777800913 | 27.22° C | 26% | 1015.9 hPa | - | - | - | - |
| 1777800013 | 27.22° C | 28% | 1016.1 hPa | - | - | - | - |
* Rain since midnight (hover to see other rain measurements)
** Current wind speed in m/s (hover to see current wind gust speed)